Vorticity
nan nan nan nan nan nan nan nan nan nan nan nan nan nan nan nan nan nan nan nan nan nan nan nan nan nan nan nan nan nan nan nan nan nan nan nan nan nan nan nan nan nan nan
nan 10 10 9 9 10 9 9 9 10 10 12 21 21 11 9 8 8 8 7 9 8 8 9 7 8 8 6 8 8 7 7 9 9 10 10 12 13 10 8 6 9 nan
nan 10 10 9 8 9 8 8 10 10 9 10 11 19 22 11 10 11 8 8 10 10 8 8 9 7 6 7 7 7 7 8 8 7 9 11 12 13 13 12 11 7 nan
nan 9 9 9 8 9 10 9 8 9 10 10 9 11 13 21 22 8 9 10 9 11 11 9 9 8 8 5 8 8 6 7 8 5 6 10 11 12 12 11 8 12 nan
nan 9 7 9 10 9 9 11 10 10 9 9 10 10 11 14 14 20 22 10 10 9 8 10 11 12 9 2 3 8 6 6 6 7 3 5 8 13 13 8 10 10 nan
nan 9 8 9 9 9 9 10 11 11 10 10 9 9 10 8 3 8 20 30 16 9 8 9 10 14 15 14 6 3 2 2 2 6 4 6 5 5 11 10 8 6 nan
nan 9 8 9 10 8 9 11 10 9 11 10 9 10 9 5 5 9 10 18 20 21 11 8 8 12 14 15 17 15 12 9 1 1 5 7 6 8 7 9 7 6 nan
nan 9 8 8 9 9 8 8 9 11 11 10 9 9 9 5 5 10 15 16 11 13 20 17 13 10 10 9 12 14 14 12 11 6 7 7 10 10 11 12 6 1 nan
nan 8 9 9 10 9 8 7 9 9 10 11 9 10 10 6 5 10 16 16 12 12 12 15 16 16 15 12 7 9 13 12 15 10 6 10 15 15 6 6 14 8 nan
nan 9 9 10 9 9 9 10 10 9 9 9 11 10 8 9 11 12 15 13 12 13 13 13 11 10 18 16 8 9 10 13 11 13 16 16 15 19 10 -4 5 4 nan
nan 8 9 11 11 11 9 8 9 11 11 8 10 11 13 11 8 9 15 13 9 10 10 12 17 14 10 13 12 4 6 11 11 10 11 13 12 12 12 11 8 8 nan
nan 9 10 9 10 11 11 10 11 9 8 9 10 11 12 9 7 8 9 11 13 14 11 8 3 11 16 14 11 8 6 6 9 13 12 12 12 13 13 14 11 9 nan
nan 10 11 10 9 11 10 10 11 11 10 10 11 10 9 10 8 7 11 13 14 15 10 7 8 11 12 18 16 15 13 7 11 12 11 11 13 12 10 14 13 9 nan
nan 9 10 9 11 12 9 10 9 9 10 10 10 8 9 10 11 11 12 14 13 10 8 12 15 17 21 16 18 19 14 13 12 10 10 11 11 14 12 11 11 10 nan
nan 10 10 10 10 10 12 9 8 7 6 4 3 6 9 7 2 0 7 10 10 5 12 14 13 16 17 17 17 15 14 13 11 11 11 12 10 10 10 10 10 10 nan
nan 11 11 8 10 9 8 10 10 8 6 5 7 9 5 1 2 8 8 6 8 13 18 11 10 11 12 13 14 14 14 12 11 11 12 12 11 11 8 9 12 11 nan
nan 4 10 11 11 10 10 9 9 12 12 13 14 10 7 8 9 10 10 13 18 23 19 12 12 13 14 12 11 12 11 12 13 12 13 11 11 14 12 8 10 10 nan
nan 10 10 12 10 9 10 10 10 8 11 13 12 12 12 10 10 9 12 22 22 18 13 11 12 13 13 11 11 11 11 12 13 13 12 13 13 12 12 12 12 12 nan
nan 11 7 9 11 11 11 10 10 11 10 9 11 12 12 12 13 17 23 19 11 12 11 12 13 12 11 12 12 12 12 13 12 13 13 13 13 12 12 13 17 15 nan
nan 12 8 9 10 12 11 10 11 11 11 10 9 11 6 12 16 17 17 9 10 11 11 12 13 13 11 12 12 12 13 14 13 13 14 13 13 12 13 12 13 11 nan
nan 16 15 11 12 11 11 11 10 10 10 10 10 6 4 14 14 11 10 10 11 11 11 13 14 13 12 12 13 13 13 13 14 13 12 13 13 12 12 14 13 12 nan
nan 11 14 12 11 8 10 12 12 11 10 9 10 8 16 16 11 11 11 12 11 11 12 14 14 13 12 12 13 13 13 13 13 13 13 13 13 13 13 14 13 14 nan
nan 11 11 12 11 9 10 12 12 10 10 11 11 11 16 12 10 10 10 12 11 12 13 14 13 12 12 13 13 13 14 14 13 12 13 12 12 14 13 13 13 12 nan
nan 12 11 11 10 13 11 11 11 10 11 11 12 12 11 11 10 11 11 11 12 13 12 13 14 12 11 11 12 12 13 12 15 16 13 10 14 13 10 13 14 12 nan
nan 11 12 12 11 10 11 12 12 13 12 11 11 11 11 11 11 11 11 11 13 13 12 14 15 14 13 13 12 12 15 11 8 11 12 15 15 11 10 13 14 12 nan
nan nan nan nan nan nan nan nan nan nan nan nan nan nan nan nan nan nan nan nan nan nan nan nan nan nan nan nan nan nan nan nan nan nan nan nan nan nan nan nan nan nan nan
CAPE
2 3 1 1 1 1 0 1 2 2 1 8 1 0 0 0 0 0 0 0 0 0 0 0 0 0 0 0 0 0 0 0 0 0 0 0 0 0 0 0 0 0 0
1 1 3 1 0 1 2 1 1 0 0 1 3 1 8 0 0 0 0 0 0 0 0 0 0 0 0 0 0 0 0 0 0 0 0 0 0 0 0 0 0 0 0
1 1 1 1 1 1 1 2 1 0 0 1 0 1 5 3 0 0 0 0 0 0 0 0 0 0 0 0 0 0 0 0 0 0 0 0 0 0 0 0 0 0 0
1 0 0 1 2 1 2 2 0 0 0 0 0 1 0 1 0 0 0 0 0 0 0 0 0 0 0 0 0 0 0 0 0 0 0 0 0 0 0 0 0 0 0
0 0 0 0 2 1 1 2 1 1 0 0 0 0 2 1 1 0 0 0 0 0 0 0 0 0 0 0 0 0 0 0 0 0 0 0 0 0 0 0 0 0 0
0 0 0 1 1 2 1 1 1 1 1 0 0 0 0 1 3 1 1 1 0 0 0 0 0 0 0 0 0 0 0 0 0 0 0 0 0 0 0 0 0 0 0
0 0 0 2 1 1 2 1 1 2 2 1 0 0 0 1 1 5 3 1 2 0 0 0 0 0 0 0 0 0 0 0 0 0 0 0 0 0 0 0 0 0 0
0 0 0 0 0 0 2 2 1 2 3 3 2 0 1 0 0 4 6 2 0 0 1 0 0 0 0 0 0 0 0 0 0 0 0 0 0 0 0 0 0 0 0
0 0 0 0 0 0 0 2 3 2 2 2 3 1 1 1 1 1 3 1 0 0 0 0 0 0 0 0 0 0 0 0 0 0 0 0 0 0 0 0 0 0 0
0 0 0 0 0 0 0 1 2 2 3 2 2 1 0 0 0 4 4 3 0 0 0 0 0 0 0 0 0 0 0 0 0 0 0 0 0 0 0 0 0 0 0
0 0 0 0 0 0 0 0 1 2 3 2 1 1 0 0 1 6 5 2 2 0 0 0 0 0 0 0 0 0 0 0 0 0 0 0 0 0 0 0 0 0 0
0 0 1 0 0 0 0 0 0 0 3 2 2 2 1 1 3 6 8 6 4 1 0 0 1 8 5 2 0 0 0 0 0 0 0 0 0 0 0 0 0 0 0
0 0 0 0 0 0 0 0 0 1 0 1 2 2 0 0 3 4 5 9 7 3 2 4 13 13 14 17 10 6 0 0 0 0 0 0 0 0 0 0 0 0 0
0 0 0 0 0 0 0 1 1 1 2 0 6 7 3 4 2 7 0 0 0 2 2 4 5 8 11 10 12 4 2 1 0 0 0 0 0 0 0 0 0 0 0
0 0 0 0 0 0 0 0 1 1 1 1 2 1 5 6 2 6 8 7 5 2 5 0 5 5 4 3 4 0 0 0 0 0 0 0 0 0 0 0 0 0 0
0 0 0 0 0 0 0 0 0 0 1 3 6 6 1 7 9 5 7 16 21 21 2 4 3 1 8 4 3 0 0 0 0 0 0 0 0 0 0 0 0 0 0
0 0 0 0 0 0 0 0 0 0 0 0 0 3 5 10 10 6 6 6 21 21 17 15 11 0 11 1 0 0 0 0 0 0 0 0 0 0 0 0 0 0 0
0 0 0 0 0 0 0 0 1 2 0 0 0 0 2 6 9 9 10 7 7 6 10 0 0 5 10 7 3 0 0 0 0 0 0 0 0 0 0 0 0 0 0
0 0 0 0 0 0 0 0 0 1 1 0 0 0 0 6 8 7 10 8 1 4 5 0 0 1 5 3 2 0 0 0 0 0 0 0 0 0 0 0 0 2 1
0 1 5 0 0 0 0 0 0 0 0 0 0 0 3 6 3 8 5 1 5 1 0 0 0 2 2 3 3 3 2 0 0 0 0 0 0 0 0 0 0 0 0
0 0 2 3 0 0 0 0 0 0 1 1 1 2 6 8 11 14 4 2 1 0 0 0 2 1 1 2 3 2 1 2 1 1 1 0 1 1 0 0 0 0 0
0 0 0 0 0 0 0 0 0 0 1 1 0 0 6 10 1 7 7 6 2 2 3 3 6 2 0 1 2 2 2 4 2 1 1 0 0 1 0 0 0 0 0
0 0 0 0 0 0 2 0 0 0 0 0 0 2 2 0 1 3 8 6 3 2 4 6 3 1 0 0 2 2 2 1 0 0 0 0 0 0 0 0 0 0 0
0 0 0 0 0 0 0 0 0 0 0 0 0 0 0 0 3 2 1 2 4 3 4 4 1 1 0 0 2 1 1 1 1 0 0 0 0 2 0 0 0 0 0
0 0 0 0 0 0 0 0 0 0 0 0 0 0 0 0 0 0 1 3 2 2 2 2 1 0 0 0 1 1 0 2 0 0 0 0 0 0 0 0 0 0 0
0 0 0 0 0 0 0 0 0 0 0 0 0 0 0 0 0 0 0 1 2 4 2 1 1 0 0 1 0 0 4 9 4 5 0 0 0 0 0 0 0 0 0